Content
SEND FEEDBACK

Daily
Averages
Monthly
Summary
Brazil

MACAPA, AMAPÁ


Home > South America > Brazil > Amapá
Elevation: 14 meters     Latitude: 00 02N     Longitude: 051 03W

WEATHER
 
SELECT A DAY
Number of Records: 170,973;   Date Range: 6/30/96 - 8/31/14
 
SHARE

PRINT THIS DATA

[ ← Previous Day ]
WEATHER ALMANAC - 31 JANUARY, 2013
[ Next Day → ]
[ °F ]   °C
Weather ElementAverageHighLow
Temperature29.3 °C35 °C (3:00 pm)25 °C (6:00 am)
Dewpoint24.1 °C25 °C (4:00 am)23 °C (3:00 pm)
Humidity74.5 %100 % (6:00 am)49 % (3:00 pm)
Barometer1010.2 hPa1012.2 hPa (9:00 am)1008.1 hPa (4:00 pm)
Wind Speed14.8 km/h24.1 km/h (4:00 pm)
Weather ElementAverage
Visibility9.7 km
Wind DirectionENE (61.2 °)

Weather ElementTotal
Precipitation---
Cooling Degree Days11.7 (Base 18.3)
Growing Degree Days20 (Base 10)
Averaged from 26 records on 31 January, 2013
WEATHER CONDITIONS BREAKOUT
WIND DIRECTION BREAKOUT
WEATHER BY HOUR - 31 JANUARY, 2013
[ °F ]   °C
Local TimeTemperatureDewpointHumidityBarometerVisibilityWind DirectionWind SpeedGust SpeedPrecipitationEventsConditions
1:00 AM27 °C24 °C84 %1011.2 hPaNE (40°)14.8 km/hClear
2:00 AM26 °C24 °C89 %1010.2 hPaNNE (30°)11.1 km/hClear
3:00 AM26 °C24 °C89 %1010.2 hPaNNE (30°)11.1 km/hClear
4:00 AM26 °C25 °C94 %1010.2 hPa10 kmNorth (10°)7.4 km/hMostly Cloudy
5:00 AM26 °C25 °C94 %1010.2 hPa10 kmNNE (20°)11.1 km/hMostly Cloudy
6:00 AM25 °C25 °C100 %1011.2 hPa10 kmNNW (340°)7.4 km/hMostly Cloudy
7:00 AM26 °C25 °C94 %1011.2 hPa10 kmNNE (20°)11.1 km/hMostly Cloudy
8:00 AM27 °C25 °C89 %1011.2 hPa10 kmENE (60°)14.8 km/hMostly Cloudy
9:00 AM27.2 °C25 °C84 %1011.9 hPa9.7 kmNorth11.1 km/hPartly Cloudy
9:00 AM28 °C25 °C84 %1012.2 hPa10 kmENE (60°)11.1 km/hMostly Cloudy
10:00 AM31 °C25 °C70 %1012.2 hPa10 kmENE (60°)18.5 km/hMostly Cloudy
11:00 AM32 °C24 °C62 %1012.2 hPa10 kmNNE (20°)18.5 km/hScattered Clouds
12:00 PM33 °C24 °C59 %1011.2 hPa10 kmENE (60°)11.1 km/hScattered Clouds
1:00 PM34 °C24 °C56 %1011.2 hPa10 kmENE (70°)14.8 km/hScattered Clouds
2:00 PM34 °C24 °C56 %1010.2 hPa10 kmENE (70°)14.8 km/hScattered Clouds
3:00 PM32.2 °C23.9 °C52 %1008.8 hPa9.7 kmENE (70°)11.1 km/hScattered Clouds
3:00 PM35 °C23 °C49 %1009.1 hPa10 kmENE (70°)20.4 km/hScattered Clouds
4:00 PM34 °C23 °C52 %1008.1 hPa10 kmENE (60°)24.1 km/hScattered Clouds
5:00 PM33 °C23 °C55 %1008.1 hPa10 kmENE (60°)24.1 km/hScattered Clouds
6:00 PM31 °C23 °C62 %1008.1 hPa10 kmENE (60°)22.2 km/hPartly Cloudy
7:00 PM29 °C23 °C70 %1008.1 hPa10 kmEast (80°)20.4 km/hPartly Cloudy
8:00 PM29 °C23 °C70 %1009.1 hPa10 kmENE (70°)22.2 km/hPartly Cloudy
9:00 PM27.8 °C24.4 °C76 %1010.8 hPa3.2 kmNE (50°)11.1 km/hPartly Cloudy
9:00 PM28 °C24 °C79 %1010.2 hPaENE (60°)14.8 km/hClear
10:00 PM27 °C24 °C84 %1010.2 hPaENE (60°)11.1 km/hClear
11:00 PM27 °C24 °C84 %1010.2 hPaENE (60°)14.8 km/hClear
Hourly data recorded from SBMQ, located 0 kilometers away from Macapa, Amapá







STORIES FROM OUR PARTNERS